| time (UTC) | temp F | wind direction | speed MPH | gust MPH | rain 1hr in | rain 24hr in | rain mn in | humidity % | barometer mb |
| 20260904083004 | 81 | 172 | 5.0 | 10.0 | 0.00 | 0.00 | 0.00 | 85 | 1013.4 |
| 20260904082504 | 81 | 170 | 5.0 | 10.0 | 0.00 | 0.00 | 0.00 | 85 | 1013.4 |
| 20260904082004 | 81 | 167 | 5.0 | 10.0 | 0.00 | 0.00 | 0.00 | 85 | 1013.4 |
| 20260904081504 | 81 | 173 | 5.0 | 10.0 | 0.00 | 0.00 | 0.00 | 85 | 1013.4 |
| 20260904081025 | 81 | 178 | 5.0 | 11.0 | 0.00 | 0.00 | 0.00 | 84 | 1013.4 |
| 20260904080525 | 81 | 169 | 5.0 | 11.0 | 0.00 | 0.00 | 0.00 | 84 | 1013.4 |
| 20260904080004 | 81 | 170 | 5.0 | 10.0 | 0.00 | 0.00 | 0.00 | 84 | 1013.4 |
| 20260904075504 | 81 | 173 | 6.0 | 11.0 | 0.00 | 0.00 | 0.00 | 84 | 1013.4 |
| 20260904075025 | 81 | 171 | 6.0 | 11.0 | 0.00 | 0.00 | 0.00 | 84 | 1013.5 |
| 20260904074504 | 81 | 171 | 6.0 | 13.0 | 0.00 | 0.00 | 0.00 | 84 | 1013.5 |
| 20260904074024 | 81 | 170 | 6.0 | 13.0 | 0.00 | 0.00 | 0.00 | 84 | 1013.6 |
| 20260904073503 | 81 | 168 | 5.0 | 11.0 | 0.00 | 0.00 | 0.00 | 84 | 1013.7 |
| 20260904073004 | 81 | 170 | 5.0 | 16.0 | 0.00 | 0.00 | 0.00 | 84 | 1013.7 |
| 20260904072504 | 81 | 166 | 6.0 | 16.0 | 0.00 | 0.00 | 0.00 | 84 | 1013.7 |
| 20260904072025 | 81 | 162 | 6.0 | 13.0 | 0.00 | 0.00 | 0.00 | 84 | 1013.8 |
| 20260904071503 | 81 | 165 | 5.0 | 13.0 | 0.00 | 0.00 | 0.00 | 84 | 1013.7 |
| 20260904071003 | 81 | 167 | 5.0 | 11.0 | 0.00 | 0.00 | 0.00 | 84 | 1013.8 |
| 20260904070503 | 81 | 167 | 5.0 | 11.0 | 0.00 | 0.00 | 0.00 | 84 | 1013.8 |
| 20260904070004 | 81 | 167 | 6.0 | 17.0 | 0.00 | 0.00 | 0.00 | 84 | 1013.8 |
| 20260904065504 | 81 | 169 | 6.0 | 17.0 | 0.00 | 0.00 | 0.00 | 84 | 1013.9 |
| 20260904065004 | 81 | 171 | 6.0 | 13.0 | 0.00 | 0.00 | 0.00 | 84 | 1014.0 |
| 20260904064504 | 81 | 172 | 6.0 | 13.0 | 0.00 | 0.00 | 0.00 | 83 | 1014.0 |
| 20260904064003 | 81 | 176 | 6.0 | 12.0 | 0.00 | 0.00 | 0.00 | 83 | 1013.9 |
| 20260904063524 | 81 | 173 | 5.0 | 11.0 | 0.00 | 0.00 | 0.00 | 83 | 1014.0 |
| 20260904063004 | 81 | 160 | 5.0 | 10.0 | 0.00 | 0.00 | 0.00 | 83 | 1014.0 |
| 20260904062504 | 81 | 161 | 5.0 | 11.0 | 0.00 | 0.00 | 0.00 | 83 | 1014.0 |
| 20260904062024 | 81 | 162 | 5.0 | 11.0 | 0.00 | 0.00 | 0.00 | 83 | 1013.9 |
| 20260904061503 | 81 | 160 | 5.0 | 11.0 | 0.00 | 0.00 | 0.00 | 83 | 1013.9 |
| 20260904061004 | 81 | 157 | 5.0 | 11.0 | 0.00 | 0.00 | 0.00 | 83 | 1014.0 |
| 20260904060503 | 81 | 158 | 5.0 | 10.0 | 0.00 | 0.00 | 0.00 | 82 | 1014.0 |
| 20260904060004 | 81 | 159 | 6.0 | 11.0 | 0.00 | 0.00 | 0.00 | 82 | 1014.0 |
| 20260904055504 | 81 | 155 | 6.0 | 12.0 | 0.00 | 0.00 | 0.00 | 82 | 1014.0 |
| 20260904055003 | 81 | 150 | 5.0 | 12.0 | 0.00 | 0.00 | 0.00 | 82 | 1014.0 |
| 20260904054524 | 81 | 153 | 5.0 | 12.0 | 0.00 | 0.00 | 0.00 | 81 | 1014.0 |
| 20260904054003 | 81 | 154 | 5.0 | 12.0 | 0.00 | 0.00 | 0.00 | 81 | 1013.9 |
| 20260904053504 | 81 | 158 | 5.0 | 11.0 | 0.00 | 0.00 | 0.00 | 81 | 1013.9 |
| 20260904053004 | 81 | 151 | 5.0 | 12.0 | 0.00 | 0.00 | 0.00 | 81 | 1013.8 |
| 20260904052503 | 81 | 143 | 5.0 | 12.0 | 0.00 | 0.00 | 0.00 | 80 | 1013.8 |
| 20260904052024 | 81 | 143 | 5.0 | 10.0 | 0.00 | 0.00 | 0.00 | 80 | 1013.8 |
| 20260904051525 | 81 | 139 | 5.0 | 10.0 | 0.00 | 0.00 | 0.00 | 80 | 1013.8 |
| 20260904051003 | 81 | 135 | 5.0 | 10.0 | 0.00 | 0.00 | 0.00 | 80 | 1013.8 |
| 20260904050504 | 81 | 138 | 4.0 | 8.0 | 0.00 | 0.00 | 0.00 | 80 | 1013.7 |
| 20260904050004 | 81 | 136 | 4.0 | 8.0 | 0.00 | 0.00 | 0.00 | 80 | 1013.7 |
| 20260904045503 | 81 | 139 | 4.0 | 10.0 | 0.00 | 0.00 | 0.00 | 80 | 1013.7 |
| 20260904045004 | 81 | 139 | 5.0 | 10.0 | 0.00 | 0.00 | 0.00 | 79 | 1013.8 |
| 20260904044504 | 81 | 132 | 5.0 | 10.0 | 0.00 | 0.00 | 0.00 | 79 | 1013.8 |
| 20260904044003 | 81 | 131 | 4.0 | 10.0 | 0.00 | 0.00 | 0.00 | 79 | 1013.7 |
| 20260904043504 | 81 | 126 | 5.0 | 8.0 | 0.00 | 0.00 | 0.00 | 79 | 1013.7 |
| 20260904043004 | 81 | 122 | 5.0 | 8.0 | 0.00 | 0.00 | 0.00 | 79 | 1013.7 |
| 20260904042503 | 81 | 121 | 5.0 | 11.0 | 0.00 | 0.00 | 0.00 | 78 | 1013.6 |
| 20260904042024 | 81 | 123 | 6.0 | 11.0 | 0.00 | 0.00 | 0.00 | 78 | 1013.7 |
| 20260904041503 | 81 | 125 | 5.0 | 11.0 | 0.00 | 0.00 | 0.00 | 78 | 1013.6 |
| 20260904041003 | 82 | 128 | 5.0 | 11.0 | 0.00 | 0.00 | 0.00 | 78 | 1013.6 |
| 20260904040503 | 82 | 131 | 5.0 | 11.0 | 0.00 | 0.00 | 0.00 | 77 | 1013.7 |
| 20260904040003 | 82 | 130 | 5.0 | 12.0 | 0.00 | 0.00 | 0.00 | 77 | 1013.6 |
| 20260904035503 | 82 | 127 | 5.0 | 12.0 | 0.00 | 0.00 | 0.00 | 77 | 1013.6 |
| 20260904035004 | 82 | 118 | 4.0 | 10.0 | 0.00 | 0.00 | 0.00 | 77 | 1013.6 |
| 20260904034525 | 82 | 112 | 4.0 | 8.0 | 0.00 | 0.00 | 0.00 | 77 | 1013.6 |
| 20260904034003 | 82 | 114 | 4.0 | 8.0 | 0.00 | 0.00 | 0.00 | 76 | 1013.7 |
| 20260904033503 | 82 | 117 | 4.0 | 10.0 | 0.00 | 0.00 | 0.00 | 76 | 1013.7 |
| 20260904033003 | 82 | 114 | 4.0 | 10.0 | 0.00 | 0.00 | 0.00 | 76 | 1013.5 |
| 20260904032503 | 83 | 113 | 5.0 | 10.0 | 0.00 | 0.00 | 0.00 | 76 | 1013.4 |
| 20260904032024 | 83 | 111 | 5.0 | 12.0 | 0.00 | 0.00 | 0.00 | 75 | 1013.3 |
| 20260904031503 | 83 | 112 | 6.0 | 12.0 | 0.00 | 0.00 | 0.00 | 75 | 1013.4 |
| 20260904031003 | 83 | 114 | 6.0 | 12.0 | 0.00 | 0.00 | 0.00 | 75 | 1013.2 |
| 20260904030503 | 83 | 116 | 5.0 | 11.0 | 0.00 | 0.00 | 0.00 | 74 | 1013.2 |
| 20260904030003 | 83 | 113 | 5.0 | 11.0 | 0.00 | 0.00 | 0.00 | 74 | 1013.1 |
| 20260904025503 | 84 | 113 | 5.0 | 11.0 | 0.00 | 0.00 | 0.00 | 73 | 1013.1 |
| 20260904025024 | 84 | 113 | 5.0 | 11.0 | 0.00 | 0.00 | 0.00 | 73 | 1013.1 |
| 20260904024524 | 84 | 114 | 5.0 | 10.0 | 0.00 | 0.00 | 0.00 | 72 | 1013.1 |
| 20260904024003 | 84 | 108 | 5.0 | 13.0 | 0.00 | 0.00 | 0.00 | 72 | 1013.0 |
| 20260904023504 | 84 | 105 | 6.0 | 13.0 | 0.00 | 0.00 | 0.00 | 72 | 1012.9 |
| 20260904023003 | 84 | 112 | 6.0 | 11.0 | 0.00 | 0.00 | 0.00 | 71 | 1012.8 |
| 20260904022503 | 84 | 108 | 6.0 | 13.0 | 0.00 | 0.00 | 0.00 | 71 | 1012.9 |
| 20260904022025 | 84 | 104 | 6.0 | 13.0 | 0.00 | 0.00 | 0.00 | 71 | 1012.9 |
| 20260904021503 | 85 | 102 | 4.0 | 10.0 | 0.00 | 0.00 | 0.00 | 71 | 1012.9 |
| 20260904021003 | 85 | 103 | 4.0 | 8.0 | 0.00 | 0.00 | 0.00 | 70 | 1012.8 |
| 20260904020524 | 85 | 110 | 5.0 | 11.0 | 0.00 | 0.00 | 0.00 | 70 | 1012.7 |
| 20260904020003 | 85 | 113 | 7.0 | 12.0 | 0.00 | 0.00 | 0.00 | 70 | 1012.4 |
| 20260904015503 | 85 | 113 | 7.0 | 13.0 | 0.00 | 0.00 | 0.00 | 70 | 1012.2 |
| 20260904015024 | 85 | 117 | 6.0 | 13.0 | 0.00 | 0.00 | 0.00 | 70 | 1012.1 |
| 20260904014503 | 85 | 119 | 6.0 | 12.0 | 0.00 | 0.00 | 0.00 | 69 | 1012.0 |
| 20260904014003 | 85 | 117 | 6.0 | 12.0 | 0.00 | 0.00 | 0.00 | 69 | 1012.0 |
| 20260904013503 | 86 | 117 | 6.0 | 14.0 | 0.00 | 0.00 | 0.00 | 69 | 1012.1 |
| 20260904013003 | 86 | 114 | 7.0 | 14.0 | 0.00 | 0.00 | 0.00 | 68 | 1012.1 |
| 20260904012503 | 86 | 117 | 7.0 | 13.0 | 0.00 | 0.00 | 0.00 | 68 | 1012.0 |
| 20260904012003 | 86 | 115 | 8.0 | 17.0 | 0.00 | 0.00 | 0.00 | 68 | 1012.0 |
| 20260904011525 | 86 | 112 | 8.0 | 17.0 | 0.00 | 0.00 | 0.00 | 67 | 1011.9 |
| 20260904011003 | 86 | 114 | 6.0 | 14.0 | 0.00 | 0.00 | 0.00 | 67 | 1012.1 |
| 20260904010503 | 86 | 110 | 6.0 | 16.0 | 0.00 | 0.00 | 0.00 | 66 | 1012.0 |
| 20260904010003 | 87 | 117 | 7.0 | 16.0 | 0.00 | 0.00 | 0.00 | 66 | 1012.0 |
| 20260904005503 | 87 | 121 | 8.0 | 16.0 | 0.00 | 0.00 | 0.00 | 65 | 1012.0 |
| 20260904005003 | 87 | 116 | 8.0 | 16.0 | 0.00 | 0.00 | 0.00 | 65 | 1012.1 |
| 20260904004503 | 88 | 115 | 7.0 | 16.0 | 0.00 | 0.00 | 0.00 | 64 | 1012.0 |
| 20260904004025 | 88 | 113 | 6.0 | 13.0 | 0.00 | 0.00 | 0.00 | 64 | 1011.9 |
| 20260904003504 | 88 | 110 | 7.0 | 13.0 | 0.00 | 0.00 | 0.00 | 63 | 1011.9 |
| 20260904003004 | 89 | 111 | 7.0 | 16.0 | 0.00 | 0.00 | 0.00 | 63 | 1011.9 |
| 20260904002504 | 89 | 110 | 8.0 | 17.0 | 0.00 | 0.00 | 0.00 | 62 | 1011.9 |
| 20260904002004 | 89 | 109 | 10.0 | 19.0 | 0.00 | 0.00 | 0.00 | 61 | 1011.9 |
| 20260904001504 | 89 | 111 | 8.0 | 19.0 | 0.00 | 0.00 | 0.00 | 61 | 1011.8 |
| 20260904001004 | 89 | 116 | 6.0 | 16.0 | 0.00 | 0.00 | 0.00 | 60 | 1011.8 |
| 20260904000504 | 90 | 114 | 6.0 | 13.0 | 0.00 | 0.00 | 0.00 | 60 | 1011.7 |
| 20260904000004 | 90 | 110 | 7.0 | 17.0 | 0.00 | 0.00 | 0.00 | 60 | 1011.8 |
| 20260903235504 | 90 | 116 | 6.0 | 17.0 | 0.00 | 0.00 | 0.00 | 61 | 1011.9 |
| 20260903235025 | 90 | 123 | 7.0 | 17.0 | 0.00 | 0.00 | 0.00 | 61 | 1011.8 |
| 20260903234504 | 90 | 126 | 8.0 | 17.0 | 0.00 | 0.00 | 0.00 | 59 | 1011.8 |
| 20260903234004 | 91 | 121 | 10.0 | 18.0 | 0.00 | 0.00 | 0.00 | 59 | 1011.8 |
| 20260903233504 | 91 | 119 | 8.0 | 18.0 | 0.00 | 0.00 | 0.00 | 58 | 1011.6 |
| 20260903233004 | 92 | 122 | 8.0 | 17.0 | 0.00 | 0.00 | 0.00 | 58 | 1011.5 |
| 20260903232504 | 92 | 120 | 11.0 | 20.0 | 0.00 | 0.00 | 0.00 | 58 | 1011.4 |
| 20260903232004 | 93 | 117 | 10.0 | 20.0 | 0.00 | 0.00 | 0.00 | 57 | 1011.4 |
| 20260903231504 | 93 | 108 | 10.0 | 24.0 | 0.00 | 0.00 | 0.00 | 57 | 1011.4 |
| 20260903231004 | 94 | 111 | 12.0 | 24.0 | 0.00 | 0.00 | 0.00 | 57 | 1011.3 |
| 20260903230525 | 94 | 117 | 13.0 | 25.0 | 0.00 | 0.00 | 0.00 | 58 | 1011.3 |
| 20260903230004 | 94 | 119 | 13.0 | 26.0 | 0.00 | 0.00 | 0.00 | 57 | 1011.4 |
| 20260903225504 | 94 | 117 | 12.0 | 25.0 | 0.00 | 0.00 | 0.00 | 56 | 1011.0 |
| 20260903225004 | 96 | 109 | 13.0 | 26.0 | 0.00 | 0.00 | 0.00 | 53 | 1011.3 |
| 20260903224525 | 96 | 102 | 11.0 | 26.0 | 0.00 | 0.00 | 0.00 | 50 | 1010.9 |
| 20260903224004 | 97 | 102 | 8.0 | 26.0 | 0.00 | 0.00 | 0.00 | 47 | 1010.7 |
| 20260903223504 | 97 | 104 | 8.0 | 23.0 | 0.00 | 0.00 | 0.00 | 47 | 1010.8 |
| 20260903223004 | 96 | 113 | 10.0 | 24.0 | 0.00 | 0.00 | 0.00 | 47 | 1010.7 |
| 20260903222525 | 96 | 114 | 12.0 | 24.0 | 0.00 | 0.00 | 0.00 | 47 | 1010.7 |
| 20260903222004 | 96 | 110 | 11.0 | 28.0 | 0.00 | 0.00 | 0.00 | 47 | 1010.7 |
| 20260903221524 | 97 | 109 | 12.0 | 29.0 | 0.00 | 0.00 | 0.00 | 46 | 1010.7 |
| 20260903221004 | 97 | 108 | 14.0 | 29.0 | 0.00 | 0.00 | 0.00 | 46 | 1010.7 |
| 20260903220504 | 98 | 108 | 13.0 | 29.0 | 0.00 | 0.00 | 0.00 | 46 | 1010.7 |
| 20260903220004 | 99 | 109 | 10.0 | 29.0 | 0.00 | 0.00 | 0.00 | 44 | 1010.7 |
| 20260903215504 | 100 | 117 | 7.0 | 22.0 | 0.00 | 0.00 | 0.00 | 42 | 1010.7 |
| 20260903215004 | 101 | 121 | 8.0 | 19.0 | 0.00 | 0.00 | 0.00 | 42 | 1010.6 |
| 20260903214503 | 101 | 112 | 7.0 | 19.0 | 0.00 | 0.00 | 0.00 | 41 | 1010.5 |
| 20260903214004 | 102 | 109 | 6.0 | 17.0 | 0.00 | 0.00 | 0.00 | 41 | 1010.5 |
| 20260903213504 | 102 | 102 | 5.0 | 17.0 | 0.00 | 0.00 | 0.00 | 41 | 1010.5 |
| 20260903213025 | 102 | 104 | 6.0 | 16.0 | 0.00 | 0.00 | 0.00 | 41 | 1010.6 |
| 20260903212504 | 102 | 119 | 6.0 | 16.0 | 0.00 | 0.00 | 0.00 | 43 | 1010.9 |
| 20260903212025 | 102 | 130 | 6.0 | 16.0 | 0.00 | 0.00 | 0.00 | 42 | 1010.7 |
| 20260903211525 | 102 | 139 | 7.0 | 13.0 | 0.00 | 0.00 | 0.00 | 41 | 1010.7 |
| 20260903211004 | 102 | 130 | 6.0 | 16.0 | 0.00 | 0.00 | 0.00 | 42 | 1010.8 |
| 20260903210504 | 102 | 121 | 4.0 | 16.0 | 0.00 | 0.00 | 0.00 | 42 | 1010.7 |
| 20260903210004 | 103 | 128 | 4.0 | 13.0 | 0.00 | 0.00 | 0.00 | 40 | 1010.8 |
| 20260903205504 | 103 | 138 | 4.0 | 10.0 | 0.00 | 0.00 | 0.00 | 39 | 1010.8 |
| 20260903205004 | 103 | 133 | 5.0 | 11.0 | 0.00 | 0.00 | 0.00 | 39 | 1011.0 |
| 20260903204503 | 104 | 144 | 6.0 | 11.0 | 0.00 | 0.00 | 0.00 | 38 | 1011.1 |
| 20260903204004 | 104 | 136 | 6.0 | 13.0 | 0.00 | 0.00 | 0.00 | 38 | 1011.2 |
| 20260903203504 | 105 | 127 | 7.0 | 17.0 | 0.00 | 0.00 | 0.00 | 38 | 1011.2 |
| 20260903203004 | 106 | 145 | 7.0 | 17.0 | 0.00 | 0.00 | 0.00 | 38 | 1011.3 |
| 20260903202504 | 105 | 154 | 5.0 | 13.0 | 0.00 | 0.00 | 0.00 | 37 | 1011.5 |
| 20260903202004 | 105 | 148 | 5.0 | 13.0 | 0.00 | 0.00 | 0.00 | 38 | 1011.5 |
| 20260903201525 | 105 | 142 | 6.0 | 17.0 | 0.00 | 0.00 | 0.00 | 37 | 1011.5 |
| 20260903201003 | 105 | 157 | 6.0 | 17.0 | 0.00 | 0.00 | 0.00 | 38 | 1011.6 |
| 20260903200503 | 105 | 171 | 5.0 | 14.0 | 0.00 | 0.00 | 0.00 | 38 | 1011.6 |
| 20260903200004 | 104 | 158 | 5.0 | 13.0 | 0.00 | 0.00 | 0.00 | 39 | 1011.7 |
| 20260903195504 | 104 | 181 | 6.0 | 14.0 | 0.00 | 0.00 | 0.00 | 40 | 1011.7 |
| 20260903195004 | 104 | 187 | 7.0 | 14.0 | 0.00 | 0.00 | 0.00 | 40 | 1011.7 |
| 20260903194524 | 104 | 179 | 7.0 | 14.0 | 0.00 | 0.00 | 0.00 | 40 | 1011.7 |
| 20260903194025 | 104 | 167 | 6.0 | 14.0 | 0.00 | 0.00 | 0.00 | 40 | 1011.7 |
| 20260903193504 | 104 | 139 | 7.0 | 14.0 | 0.00 | 0.00 | 0.00 | 42 | 1011.9 |
| 20260903193025 | 103 | 137 | 6.0 | 14.0 | 0.00 | 0.00 | 0.00 | 41 | 1012.0 |
| 20260903192504 | 103 | 190 | 5.0 | 14.0 | 0.00 | 0.00 | 0.00 | 43 | 1012.1 |
| 20260903192004 | 103 | 200 | 6.0 | 14.0 | 0.00 | 0.00 | 0.00 | 41 | 1012.2 |
| 20260903191525 | 103 | 181 | 5.0 | 12.0 | 0.00 | 0.00 | 0.00 | 41 | 1012.2 |
| 20260903191025 | 103 | 148 | 6.0 | 13.0 | 0.00 | 0.00 | 0.00 | 43 | 1012.4 |
| 20260903190504 | 103 | 134 | 8.0 | 16.0 | 0.00 | 0.00 | 0.00 | 44 | 1012.7 |
| 20260903190024 | 103 | 128 | 8.0 | 20.0 | 0.00 | 0.00 | 0.00 | 43 | 1012.5 |
| 20260903185504 | 102 | 162 | 6.0 | 20.0 | 0.00 | 0.00 | 0.00 | 44 | 1012.5 |
| 20260903185025 | 102 | 202 | 6.0 | 14.0 | 0.00 | 0.00 | 0.00 | 45 | 1012.6 |
| 20260903184503 | 102 | 187 | 8.0 | 14.0 | 0.00 | 0.00 | 0.00 | 43 | 1012.7 |
| 20260903184003 | 102 | 152 | 8.0 | 14.0 | 0.00 | 0.00 | 0.00 | 46 | 1012.8 |
| 20260903183504 | 102 | 133 | 6.0 | 14.0 | 0.00 | 0.00 | 0.00 | 45 | 1012.9 |
| 20260903183003 | 101 | 147 | 6.0 | 14.0 | 0.00 | 0.00 | 0.00 | 46 | 1013.0 |
| 20260903182525 | 101 | 157 | 7.0 | 16.0 | 0.00 | 0.00 | 0.00 | 45 | 1013.0 |
| 20260903182003 | 101 | 154 | 7.0 | 16.0 | 0.00 | 0.00 | 0.00 | 45 | 1013.2 |
| 20260903181503 | 100 | 147 | 6.0 | 14.0 | 0.00 | 0.00 | 0.00 | 47 | 1013.3 |
| 20260903181004 | 100 | 148 | 7.0 | 14.0 | 0.00 | 0.00 | 0.00 | 47 | 1013.4 |
| 20260903180504 | 100 | 160 | 7.0 | 14.0 | 0.00 | 0.00 | 0.00 | 48 | 1013.4 |
| 20260903180003 | 99 | 180 | 6.0 | 14.0 | 0.00 | 0.00 | 0.00 | 48 | 1013.4 |
| 20260903175504 | 98 | 187 | 7.0 | 18.0 | 0.00 | 0.00 | 0.00 | 48 | 1013.5 |
| 20260903175003 | 98 | 190 | 7.0 | 18.0 | 0.00 | 0.00 | 0.00 | 49 | 1013.5 |
| 20260903174504 | 98 | 192 | 7.0 | 16.0 | 0.00 | 0.00 | 0.00 | 50 | 1013.5 |
| 20260903174003 | 97 | 191 | 7.0 | 16.0 | 0.00 | 0.00 | 0.00 | 51 | 1013.4 |
| 20260903173503 | 96 | 197 | 7.0 | 17.0 | 0.00 | 0.00 | 0.00 | 51 | 1013.5 |
| 20260903173003 | 96 | 185 | 7.0 | 17.0 | 0.00 | 0.00 | 0.00 | 51 | 1013.6 |
| 20260903172503 | 96 | 167 | 7.0 | 14.0 | 0.00 | 0.00 | 0.00 | 54 | 1013.7 |
| 20260903172004 | 95 | 161 | 8.0 | 18.0 | 0.00 | 0.00 | 0.00 | 54 | 1013.8 |
| 20260903171503 | 95 | 165 | 11.0 | 19.0 | 0.00 | 0.00 | 0.00 | 56 | 1013.9 |
| 20260903171004 | 94 | 177 | 11.0 | 19.0 | 0.00 | 0.00 | 0.00 | 55 | 1014.0 |
| 20260903170504 | 94 | 170 | 8.0 | 16.0 | 0.00 | 0.00 | 0.00 | 54 | 1014.0 |
| 20260903170003 | 94 | 151 | 8.0 | 16.0 | 0.00 | 0.00 | 0.00 | 56 | 1014.1 |
| 20260903165504 | 94 | 147 | 8.0 | 17.0 | 0.00 | 0.00 | 0.00 | 57 | 1014.1 |
| 20260903165025 | 93 | 155 | 8.0 | 17.0 | 0.00 | 0.00 | 0.00 | 59 | 1014.1 |
| 20260903164503 | 93 | 157 | 7.0 | 17.0 | 0.00 | 0.00 | 0.00 | 60 | 1014.2 |
| 20260903164003 | 92 | 160 | 7.0 | 17.0 | 0.00 | 0.00 | 0.00 | 61 | 1014.2 |
| 20260903163503 | 92 | 180 | 7.0 | 18.0 | 0.00 | 0.00 | 0.00 | 60 | 1014.2 |
| 20260903163003 | 92 | 194 | 7.0 | 18.0 | 0.00 | 0.00 | 0.00 | 60 | 1014.2 |
| 20260903162503 | 92 | 204 | 7.0 | 14.0 | 0.00 | 0.00 | 0.00 | 61 | 1014.2 |
| 20260903162003 | 91 | 195 | 8.0 | 19.0 | 0.00 | 0.00 | 0.00 | 61 | 1014.3 |
| 20260903161503 | 91 | 182 | 10.0 | 22.0 | 0.00 | 0.00 | 0.00 | 61 | 1014.2 |
| 20260903161003 | 91 | 175 | 11.0 | 22.0 | 0.00 | 0.00 | 0.00 | 62 | 1014.3 |
| 20260903160503 | 90 | 174 | 10.0 | 18.0 | 0.00 | 0.00 | 0.00 | 63 | 1014.3 |
| 20260903160003 | 90 | 182 | 7.0 | 18.0 | 0.00 | 0.00 | 0.00 | 65 | 1014.3 |
| 20260903155503 | 90 | 193 | 7.0 | 14.0 | 0.00 | 0.00 | 0.00 | 65 | 1014.3 |
| 20260903155003 | 89 | 185 | 8.0 | 18.0 | 0.00 | 0.00 | 0.00 | 66 | 1014.3 |
| 20260903154503 | 89 | 171 | 8.0 | 18.0 | 0.00 | 0.00 | 0.00 | 68 | 1014.2 |
| 20260903154024 | 89 | 173 | 7.0 | 14.0 | 0.00 | 0.00 | 0.00 | 68 | 1014.2 |
| 20260903153524 | 88 | 179 | 6.0 | 13.0 | 0.00 | 0.00 | 0.00 | 68 | 1014.3 |
| 20260903153003 | 88 | 180 | 7.0 | 16.0 | 0.00 | 0.00 | 0.00 | 70 | 1014.3 |
| 20260903152524 | 88 | 181 | 8.0 | 19.0 | 0.00 | 0.00 | 0.00 | 69 | 1014.3 |
| 20260903152003 | 87 | 190 | 10.0 | 19.0 | 0.00 | 0.00 | 0.00 | 70 | 1014.2 |
| 20260903151503 | 87 | 196 | 10.0 | 19.0 | 0.00 | 0.00 | 0.00 | 70 | 1014.2 |
| 20260903151003 | 87 | 188 | 10.0 | 19.0 | 0.00 | 0.00 | 0.00 | 71 | 1014.2 |
| 20260903150503 | 87 | 190 | 10.0 | 25.0 | 0.00 | 0.00 | 0.00 | 71 | 1014.2 |
| 20260903150003 | 86 | 191 | 8.0 | 25.0 | 0.00 | 0.00 | 0.00 | 72 | 1014.2 |
| 20260903145503 | 86 | 183 | 8.0 | 18.0 | 0.00 | 0.00 | 0.00 | 74 | 1014.1 |
| 20260903145003 | 86 | 189 | 7.0 | 18.0 | 0.00 | 0.00 | 0.00 | 75 | 1014.1 |
| 20260903144503 | 85 | 198 | 8.0 | 19.0 | 0.00 | 0.00 | 0.00 | 75 | 1014.1 |
| 20260903144024 | 85 | 190 | 10.0 | 20.0 | 0.00 | 0.00 | 0.00 | 75 | 1014.1 |
| 20260903143503 | 85 | 178 | 11.0 | 20.0 | 0.00 | 0.00 | 0.00 | 76 | 1014.2 |
| 20260903143004 | 84 | 175 | 10.0 | 20.0 | 0.00 | 0.00 | 0.00 | 76 | 1014.2 |
| 20260903142503 | 84 | 185 | 10.0 | 20.0 | 0.00 | 0.00 | 0.00 | 77 | 1014.3 |
| 20260903142003 | 84 | 195 | 8.0 | 18.0 | 0.00 | 0.00 | 0.00 | 77 | 1014.3 |
| 20260903141524 | 84 | 194 | 10.0 | 19.0 | 0.00 | 0.00 | 0.00 | 77 | 1014.4 |
| 20260903141003 | 84 | 185 | 10.0 | 23.0 | 0.00 | 0.00 | 0.00 | 78 | 1014.3 |
| 20260903140503 | 84 | 180 | 8.0 | 23.0 | 0.00 | 0.00 | 0.00 | 79 | 1014.3 |
| 20260903140003 | 84 | 185 | 8.0 | 16.0 | 0.00 | 0.00 | 0.00 | 80 | 1014.3 |
| 20260903135503 | 83 | 184 | 10.0 | 18.0 | 0.00 | 0.00 | 0.00 | 80 | 1014.3 |
| 20260903135003 | 83 | 180 | 10.0 | 18.0 | 0.00 | 0.00 | 0.00 | 81 | 1014.3 |
| 20260903134503 | 83 | 182 | 10.0 | 18.0 | 0.00 | 0.00 | 0.00 | 81 | 1014.3 |
| 20260903134003 | 83 | 181 | 10.0 | 19.0 | 0.00 | 0.00 | 0.00 | 82 | 1014.3 |
| 20260903133503 | 82 | 178 | 8.0 | 19.0 | 0.00 | 0.00 | 0.00 | 82 | 1014.4 |
| 20260903133024 | 82 | 185 | 8.0 | 16.0 | 0.00 | 0.00 | 0.00 | 83 | 1014.4 |
| 20260903132503 | 82 | 185 | 7.0 | 16.0 | 0.00 | 0.00 | 0.00 | 83 | 1014.4 |
| 20260903132003 | 82 | 177 | 7.0 | 16.0 | 0.00 | 0.00 | 0.00 | 83 | 1014.4 |
| 20260903131503 | 82 | 175 | 8.0 | 16.0 | 0.00 | 0.00 | 0.00 | 84 | 1014.4 |
| 20260903131003 | 82 | 175 | 8.0 | 16.0 | 0.00 | 0.00 | 0.00 | 84 | 1014.4 |
| 20260903130524 | 82 | 173 | 8.0 | 17.0 | 0.00 | 0.00 | 0.00 | 84 | 1014.3 |
| 20260903130003 | 81 | 171 | 8.0 | 18.0 | 0.00 | 0.00 | 0.00 | 84 | 1014.4 |
| 20260903125503 | 81 | 176 | 8.0 | 18.0 | 0.00 | 0.00 | 0.00 | 84 | 1014.3 |
| 20260903125003 | 81 | 179 | 8.0 | 14.0 | 0.00 | 0.00 | 0.00 | 84 | 1014.2 |
| 20260903124503 | 81 | 178 | 7.0 | 14.0 | 0.00 | 0.00 | 0.00 | 84 | 1014.2 |
| 20260903124003 | 81 | 180 | 7.0 | 14.0 | 0.00 | 0.00 | 0.00 | 85 | 1014.2 |
| 20260903123504 | 81 | 179 | 7.0 | 14.0 | 0.00 | 0.00 | 0.00 | 85 | 1014.1 |
| 20260903123004 | 81 | 178 | 6.0 | 14.0 | 0.00 | 0.00 | 0.00 | 85 | 1014.1 |
| 20260903122504 | 81 | 182 | 7.0 | 13.0 | 0.00 | 0.00 | 0.00 | 85 | 1014.1 |
| 20260903122004 | 81 | 180 | 7.0 | 13.0 | 0.00 | 0.00 | 0.00 | 85 | 1014.0 |
| 20260903121504 | 81 | 176 | 6.0 | 13.0 | 0.00 | 0.00 | 0.00 | 85 | 1013.9 |
| 20260903121004 | 81 | 175 | 6.0 | 12.0 | 0.00 | 0.00 | 0.00 | 85 | 1013.9 |
| 20260903120504 | 81 | 177 | 7.0 | 12.0 | 0.00 | 0.00 | 0.00 | 86 | 1013.9 |
| 20260903120004 | 81 | 178 | 7.0 | 16.0 | 0.00 | 0.00 | 0.00 | 86 | 1013.8 |
| 20260903115504 | 81 | 180 | 7.0 | 16.0 | 0.00 | 0.00 | 0.00 | 86 | 1013.7 |
| 20260903115004 | 81 | 178 | 7.0 | 13.0 | 0.00 | 0.00 | 0.00 | 86 | 1013.7 |
| 20260903114504 | 81 | 174 | 6.0 | 11.0 | 0.00 | 0.00 | 0.00 | 86 | 1013.7 |
| 20260903114004 | 81 | 178 | 5.0 | 8.0 | 0.00 | 0.00 | 0.00 | 86 | 1013.7 |
| 20260903113504 | 81 | 181 | 5.0 | 10.0 | 0.00 | 0.00 | 0.00 | 87 | 1013.7 |
| 20260903113004 | 80 | 177 | 6.0 | 12.0 | 0.00 | 0.00 | 0.00 | 87 | 1013.6 |
| 20260903112504 | 80 | 173 | 7.0 | 12.0 | 0.00 | 0.00 | 0.00 | 87 | 1013.7 |
| 20260903112025 | 80 | 172 | 6.0 | 12.0 | 0.00 | 0.00 | 0.00 | 87 | 1013.7 |
| 20260903111504 | 80 | 172 | 6.0 | 12.0 | 0.00 | 0.00 | 0.00 | 87 | 1013.7 |
| 20260903111004 | 80 | 170 | 7.0 | 12.0 | 0.00 | 0.00 | 0.00 | 87 | 1013.7 |
| 20260903110504 | 80 | 171 | 7.0 | 12.0 | 0.00 | 0.00 | 0.00 | 88 | 1013.6 |
| 20260903110004 | 80 | 172 | 6.0 | 12.0 | 0.00 | 0.00 | 0.00 | 88 | 1013.6 |
| 20260903105504 | 80 | 171 | 6.0 | 12.0 | 0.00 | 0.00 | 0.00 | 88 | 1013.7 |
| 20260903105004 | 80 | 168 | 6.0 | 11.0 | 0.00 | 0.00 | 0.00 | 88 | 1013.7 |
| 20260903104504 | 80 | 169 | 6.0 | 11.0 | 0.00 | 0.00 | 0.00 | 88 | 1013.6 |
| 20260903104005 | 80 | 170 | 5.0 | 8.0 | 0.00 | 0.00 | 0.00 | 88 | 1013.6 |
| 20260903103504 | 80 | 170 | 5.0 | 11.0 | 0.00 | 0.00 | 0.00 | 88 | 1013.5 |
| 20260903103004 | 80 | 174 | 5.0 | 11.0 | 0.00 | 0.00 | 0.00 | 88 | 1013.5 |
| 20260903102504 | 80 | 174 | 5.0 | 10.0 | 0.00 | 0.00 | 0.00 | 88 | 1013.5 |
| 20260903102004 | 80 | 172 | 5.0 | 10.0 | 0.00 | 0.00 | 0.00 | 88 | 1013.6 |
| 20260903101504 | 80 | 170 | 5.0 | 10.0 | 0.00 | 0.00 | 0.00 | 88 | 1013.5 |
| 20260903101025 | 80 | 165 | 5.0 | 10.0 | 0.00 | 0.00 | 0.00 | 88 | 1013.5 |
| 20260903100504 | 80 | 166 | 5.0 | 8.0 | 0.00 | 0.00 | 0.00 | 88 | 1013.6 |
| 20260903100004 | 80 | 165 | 5.0 | 8.0 | 0.00 | 0.00 | 0.00 | 88 | 1013.6 |
| 20260903095504 | 80 | 168 | 5.0 | 10.0 | 0.00 | 0.00 | 0.00 | 87 | 1013.6 |
| 20260903095004 | 80 | 170 | 4.0 | 10.0 | 0.00 | 0.00 | 0.00 | 87 | 1013.6 |
| 20260903094525 | 80 | 166 | 5.0 | 8.0 | 0.00 | 0.00 | 0.00 | 87 | 1013.6 |
| 20260903094025 | 80 | 166 | 5.0 | 11.0 | 0.00 | 0.00 | 0.00 | 87 | 1013.7 |
| 20260903093525 | 80 | 165 | 5.0 | 11.0 | 0.00 | 0.00 | 0.00 | 87 | 1013.7 |
| 20260903093004 | 80 | 166 | 5.0 | 10.0 | 0.00 | 0.00 | 0.00 | 87 | 1013.7 |
| 20260903092504 | 80 | 170 | 5.0 | 8.0 | 0.00 | 0.00 | 0.00 | 87 | 1013.7 |
| 20260903092004 | 80 | 170 | 5.0 | 8.0 | 0.00 | 0.00 | 0.00 | 87 | 1013.8 |
| 20260903091525 | 80 | 169 | 6.0 | 11.0 | 0.00 | 0.00 | 0.00 | 87 | 1013.7 |
| 20260903091025 | 80 | 167 | 5.0 | 11.0 | 0.00 | 0.00 | 0.00 | 86 | 1013.7 |
| 20260903090504 | 80 | 166 | 5.0 | 11.0 | 0.00 | 0.00 | 0.00 | 86 | 1013.8 |
| 20260903090004 | 80 | 168 | 5.0 | 11.0 | 0.00 | 0.00 | 0.00 | 86 | 1013.8 |
| 20260903085504 | 80 | 173 | 5.0 | 10.0 | 0.00 | 0.00 | 0.00 | 86 | 1013.8 |
| 20260903085003 | 80 | 172 | 5.0 | 10.0 | 0.00 | 0.00 | 0.00 | 86 | 1013.8 |
| 20260903084504 | 81 | 167 | 5.0 | 10.0 | 0.00 | 0.00 | 0.00 | 86 | 1013.7 |
| 20260903084004 | 81 | 163 | 6.0 | 10.0 | 0.00 | 0.00 | 0.00 | 86 | 1013.7 |
| 20260903083504 | 81 | 166 | 6.0 | 12.0 | 0.00 | 0.00 | 0.00 | 85 | 1013.8 |